User: anonymous   Login
Location: Unspecified
(0.0000°N, 0.0000°E)
Time: 03:52:39
(UTC+02:00)
Language:

Cosmos 494 Rocket - Orbit

View from above orbital plane
View from above orbital plane
View from above satellite
View from above satellite

Ground track
Ground track

The orbit data is extracted from the following two-line orbital elements,

1 06061U 72043B   15113.49888083  .00000436  00000-0  14539-3 0  9996
2 06061 074.0577 191.0973 0019582 162.0683 198.1167 14.40351058245180
Epoch (UTC): 23 April 2015 11:58:23
Eccentricity: 0.0019582
inclination: 74.0577°
perigee height: 743 km
apogee height: 771 km
right ascension of ascending node: 191.0973°
argument of perigee: 162.0683°
revolutions per day: 14.40351058
mean anomaly at epoch: 198.1167°
orbit number at epoch: 24518

The dashed part of the orbit path shows where the satellite is in the earth's shadow,  

DLR